Theta_e
300 300 300 301 302 302 302 304 305 307 309 310 313 315 317 318 319 320 322 324 325 327 331 330 329 327 325 323 322 321 320 321 317 324 322 325 325 326 327 329 331 330 329
300 300 299 300 301 300 301 301 303 304 306 307 309 312 314 318 318 319 320 321 322 322 323 325 326 328 325 323 321 320 321 322 320 320 323 323 325 325 325 325 327 329 329
300 300 299 299 299 299 300 301 301 302 303 305 306 307 311 314 316 318 320 321 321 322 320 319 320 322 322 321 321 320 322 325 326 324 321 321 323 321 319 321 322 323 328
299 298 297 297 298 299 300 300 301 301 301 301 302 304 307 309 315 318 320 320 321 321 320 322 321 319 319 320 323 324 322 323 325 325 321 318 317 315 315 315 314 318 320
297 296 296 298 298 297 298 299 301 302 301 301 301 304 306 309 309 315 317 319 320 320 321 320 320 322 323 321 323 324 325 324 325 318 314 311 308 307 305 309 310 314 316
296 295 296 296 297 296 297 298 300 298 297 299 301 302 301 305 306 309 311 314 317 318 317 319 321 321 320 316 318 319 324 323 318 315 310 309 306 304 306 311 314 312 310
294 295 295 296 296 296 297 297 297 296 297 298 298 299 300 304 303 304 305 312 314 312 313 314 319 322 320 324 314 314 313 313 317 315 311 308 305 304 310 312 313 313 313
295 295 296 296 296 297 296 296 297 297 297 298 299 300 302 303 303 301 305 311 311 312 314 316 318 320 320 320 317 315 315 314 313 311 309 307 308 309 315 314 314 314 318
293 294 295 296 295 295 296 296 297 297 297 297 298 299 298 299 299 299 303 311 312 313 317 320 320 318 309 305 312 311 310 313 307 304 304 303 302 305 311 316 311 311 307
293 294 295 294 295 295 296 296 297 298 297 298 297 298 300 299 299 298 302 313 311 313 316 318 308 314 302 303 313 313 312 312 314 312 311 307 303 303 306 311 310 311 310
294 294 294 295 295 296 297 298 298 298 298 297 297 297 299 302 302 300 298 312 310 314 315 316 317 303 298 301 306 315 311 313 310 311 310 308 307 307 307 310 317 320 320
293 293 293 294 296 297 298 299 298 297 297 296 296 296 300 302 301 301 299 304 307 314 316 317 316 299 299 299 305 295 297 307 310 308 307 305 305 306 310 314 320 323 327
292 292 292 295 296 298 298 297 296 297 296 295 295 295 298 301 304 300 298 299 302 313 316 312 303 298 295 299 294 295 301 308 306 304 302 302 304 308 311 323 323 325 322
290 291 293 293 295 299 298 297 296 296 295 295 295 296 299 303 308 306 306 303 302 309 308 307 300 299 299 298 299 301 306 305 303 302 302 303 306 312 316 318 317 320 318
290 291 292 294 296 298 297 296 296 297 296 295 296 298 300 303 302 297 305 309 311 309 304 303 303 305 303 302 301 301 301 301 303 303 304 306 308 310 316 317 317 315 317
289 291 292 294 297 298 296 295 295 293 293 292 292 294 299 296 293 294 297 296 297 297 306 305 304 305 303 302 303 303 304 304 304 304 305 306 308 311 315 319 316 314 314
290 291 292 293 298 298 296 295 294 296 294 293 292 292 292 292 292 293 293 295 296 298 304 304 303 303 302 302 302 302 303 303 305 305 307 307 311 312 313 317 316 316 313
290 291 292 295 297 299 297 297 296 295 295 295 293 291 294 293 292 293 293 300 303 301 303 304 303 303 302 302 303 303 302 302 304 307 309 310 312 313 314 315 314 316 316
289 291 293 295 297 301 299 298 297 297 297 297 296 293 294 293 292 292 293 306 305 303 301 301 302 302 303 304 304 302 302 302 303 305 308 311 312 312 312 314 315 303 308
290 290 291 293 296 297 299 298 298 298 297 298 296 293 299 297 297 299 300 305 304 304 303 302 302 302 303 304 303 302 301 301 302 303 306 310 312 313 313 314 314 316 318
288 290 289 291 292 294 295 297 299 299 299 299 297 295 291 298 299 300 301 305 306 304 304 303 304 304 304 303 302 302 301 302 303 304 306 310 312 313 315 316 319 318 313
288 288 288 288 290 291 292 298 301 300 300 299 298 294 288 299 301 301 301 306 307 307 308 305 305 305 304 304 303 302 303 304 305 306 309 312 314 315 316 319 317 313 309
286 286 286 287 288 288 290 293 298 300 300 301 300 299 300 300 299 304 305 305 306 306 306 306 305 304 304 304 304 305 305 307 309 309 310 314 314 315 317 318 315 313 311
285 285 284 285 285 286 287 289 291 292 298 299 299 300 300 300 300 301 302 304 305 305 306 306 305 305 304 305 306 309 311 313 315 315 316 315 315 312 318 316 314 313 310
284 284 283 283 284 284 285 286 287 289 292 294 298 298 299 299 299 300 302 302 304 303 303 303 304 305 305 304 304 304 300 291 303 299 317 316 316 316 316 316 315 311 306
283 282 282 282 282 282 283 284 285 286 287 289 292 294 296 297 297 299 300 301 301 302 304 304 303 304 304 304 305 298 293 290 295 288 308 316 316 316 317 316 312 309 306
Wind_Speed
4 5 6 8 10 8 7 8 7 7 7 9 10 11 13 11 9 8 9 12 13 13 13 14 17 16 12 12 10 9 15 14 13 12 3 6 5 6 3 3 4 5 3
6 7 7 9 11 11 12 11 7 10 10 11 11 12 12 13 11 10 11 11 12 13 14 16 19 14 16 12 9 13 12 14 13 26 7 5 6 5 3 3 4 4 5
8 11 11 12 11 13 12 11 11 12 12 11 13 14 13 12 13 12 11 11 13 13 12 13 14 12 12 10 11 10 10 9 13 7 5 3 3 2 2 2 2 4 2
10 10 12 11 11 11 12 13 11 10 14 14 14 16 16 13 13 14 11 10 11 12 13 12 9 13 15 14 12 16 16 14 10 6 4 4 3 2 2 3 2 1 0
10 11 11 10 11 13 13 13 13 11 11 15 17 16 15 12 10 12 10 10 12 11 12 15 13 15 18 13 9 11 11 8 5 5 4 3 3 3 4 3 3 1 2
11 12 12 12 12 12 12 12 12 12 12 13 15 13 15 13 15 12 11 7 5 4 4 4 5 11 11 12 14 14 14 14 9 5 4 6 5 4 3 4 4 2 2
12 13 13 14 12 11 11 12 12 12 12 12 14 15 16 16 18 13 11 7 6 5 4 4 4 7 10 9 9 10 9 10 11 7 7 4 5 6 7 5 4 4 4
13 14 12 12 13 13 13 14 13 13 12 10 12 14 14 13 15 11 14 7 5 5 4 4 3 9 10 9 11 10 8 6 6 5 6 6 4 7 6 5 6 3 1
14 13 13 13 14 15 15 15 14 13 12 12 11 15 15 15 16 13 12 7 5 1 4 5 5 8 8 12 13 11 7 5 8 11 11 9 8 8 7 6 4 4 2
12 14 14 16 15 16 16 16 14 13 14 11 12 14 19 16 19 18 15 5 3 1 0 2 5 4 10 10 14 11 9 4 6 6 5 7 6 4 4 2 5 4 3
14 14 16 15 15 16 16 15 14 15 14 11 12 12 16 15 14 19 16 7 5 3 2 3 3 7 10 12 13 9 8 8 7 6 5 4 3 1 3 5 6 6 4
14 15 15 15 13 13 16 12 14 14 13 8 10 11 10 11 14 15 15 11 8 5 6 8 5 9 13 15 10 12 12 10 5 5 3 3 1 2 4 5 7 7 4
15 15 14 15 14 13 12 12 12 11 4 6 7 8 9 9 9 10 15 12 12 6 6 11 7 9 9 11 13 13 10 5 5 4 3 3 3 3 2 0 2 4 6
15 15 13 12 13 10 7 8 8 5 4 5 6 8 8 8 5 7 8 7 8 5 7 7 8 7 8 10 7 5 4 4 4 4 3 1 1 1 2 2 3 4 3
14 12 12 10 11 9 7 6 6 6 5 5 6 7 6 4 6 7 7 8 12 10 12 7 5 5 5 4 4 4 3 3 4 4 3 3 2 2 1 2 3 3 3
13 11 10 11 9 7 5 6 5 9 11 8 11 9 7 5 13 5 10 9 15 17 9 9 7 8 8 5 5 3 2 3 2 3 4 2 1 2 2 1 2 2 5
12 12 10 12 9 6 4 5 6 5 6 7 9 8 6 5 9 15 11 15 13 6 5 8 9 8 6 5 4 3 3 2 3 2 2 4 3 2 2 3 2 3 3
13 18 9 10 10 7 4 4 4 4 5 5 5 5 7 8 10 13 9 7 4 5 3 9 8 6 5 5 4 3 4 3 2 2 2 3 3 2 2 2 2 4 6
11 9 11 11 11 10 4 3 4 5 4 5 4 3 3 3 10 11 5 4 2 2 2 5 5 5 5 5 4 4 4 3 2 1 1 2 3 2 0 1 3 3 4
10 15 13 10 9 9 7 4 4 4 4 4 4 3 2 2 1 2 1 2 1 1 2 3 4 5 5 5 4 5 3 2 1 1 1 0 2 3 2 3 3 3 5
9 10 15 9 9 9 8 8 3 4 4 2 3 3 4 3 1 2 1 4 4 4 4 4 4 4 5 3 4 4 2 1 1 2 2 1 2 2 3 2 3 3 4
9 10 10 10 10 10 11 10 4 3 3 2 2 3 5 1 2 2 4 4 5 4 5 5 4 4 5 5 5 4 3 1 1 2 2 2 2 2 2 4 4 4 5
11 11 11 10 11 13 10 10 9 5 4 4 4 3 3 3 2 2 3 3 4 3 3 5 4 4 4 4 4 5 4 2 1 2 2 3 2 2 3 5 5 6 7
11 12 12 11 11 11 11 11 10 12 9 5 4 2 1 2 3 5 5 3 2 3 3 4 5 7 6 5 4 5 3 0 3 1 4 3 3 3 3 5 7 7 8
12 12 12 12 12 12 12 11 11 11 10 9 7 4 3 3 3 3 4 4 4 3 3 3 4 7 9 9 7 6 4 3 1 2 2 3 4 6 5 5 7 8 11
12 13 12 11 11 11 11 12 11 11 10 9 8 9 5 5 3 4 2 2 3 4 3 1 3 7 8 6 6 5 2 3 3 4 4 4 4 5 5 6 10 9 9
Wind_Direction
296 293 306 306 301 292 291 286 276 283 289 297 297 294 287 273 265 256 255 263 263 259 243 227 224 220 218 207 210 201 195 183 207 257 231 237 167 201 199 203 212 216 228
303 296 290 297 301 300 298 296 296 291 286 282 285 286 288 280 268 255 260 263 262 258 249 240 236 228 226 219 204 210 212 209 211 192 182 208 196 208 182 161 214 216 204
302 306 308 303 299 298 295 293 293 293 291 290 287 280 279 278 279 266 257 263 270 259 244 231 231 225 218 215 212 213 211 218 204 171 163 149 183 166 144 165 188 233 236
311 306 295 292 292 290 290 285 279 281 288 288 283 278 271 271 274 273 262 263 257 250 240 243 220 214 211 211 215 213 210 202 197 186 148 170 145 157 118 135 141 51 287
298 291 293 293 296 291 289 285 281 278 290 286 287 276 273 265 268 269 251 254 265 262 245 243 235 222 212 205 191 187 184 157 210 180 139 142 146 123 154 169 128 122 280
295 298 299 291 291 290 292 297 292 290 286 285 281 286 287 279 276 253 254 246 243 240 265 303 233 213 225 228 213 195 181 160 177 140 162 157 162 147 136 151 127 132 252
300 298 294 294 288 286 292 294 286 280 279 280 278 278 275 267 265 242 235 238 233 226 241 274 300 324 264 207 190 161 158 150 154 148 143 147 132 159 144 158 142 163 194
297 297 294 301 303 301 291 281 281 281 279 280 285 274 280 281 281 222 216 219 216 224 220 241 245 255 246 186 145 125 125 128 133 127 140 161 163 157 148 151 155 144 15
300 304 309 303 296 292 286 284 279 274 270 267 269 277 274 276 277 237 231 235 212 332 7 354 266 238 203 185 120 122 129 106 78 79 82 94 100 117 126 113 130 129 223
308 304 301 298 288 285 283 282 278 271 264 262 268 271 268 267 269 266 204 216 210 355 34 147 216 229 180 167 129 129 114 125 119 98 90 86 92 98 151 179 153 154 173
303 302 296 291 289 287 285 282 278 269 261 251 265 274 274 263 278 263 188 201 177 138 185 92 26 229 227 118 112 129 140 139 111 103 91 66 53 149 186 215 208 188 202
305 296 296 295 292 290 290 295 291 284 265 252 268 276 273 267 258 260 178 168 168 132 172 120 242 184 213 115 98 107 114 98 103 96 106 111 122 234 222 214 203 201 217
301 296 294 294 294 296 299 299 298 292 238 262 269 280 282 278 275 216 172 172 166 159 183 113 171 199 123 84 108 121 118 105 115 117 162 185 190 197 302 6 135 108 69
297 296 297 294 296 292 295 297 307 289 260 268 280 285 276 275 290 153 173 162 192 139 85 118 160 208 86 109 101 106 101 122 135 135 165 209 237 122 114 177 161 139 136
297 293 295 296 297 293 286 290 304 300 285 287 293 301 302 332 341 269 158 175 177 157 121 127 163 156 108 107 95 124 120 133 131 149 146 173 160 134 143 155 170 170 142
299 303 307 302 298 281 288 302 287 282 279 282 290 274 294 0 351 57 119 95 121 133 138 159 180 135 141 134 133 138 127 154 162 149 145 174 234 160 106 139 167 151 132
302 306 306 302 301 285 290 300 307 307 276 271 291 329 318 351 26 7 83 100 114 88 136 175 138 138 134 121 152 146 131 152 112 132 157 154 160 96 113 193 114 117 113
311 305 302 306 305 285 261 270 282 287 311 305 278 249 320 357 38 34 48 98 65 63 156 139 130 129 130 139 158 127 129 104 78 50 65 118 145 138 128 191 175 171 164
318 317 321 313 309 314 260 256 254 266 256 266 283 327 288 341 64 72 356 50 77 80 133 94 123 128 139 139 143 127 115 110 95 60 15 144 138 130 226 231 212 205 196
329 326 323 316 324 334 331 259 259 253 257 240 234 239 128 71 12 91 127 225 154 236 132 125 139 132 130 136 130 123 112 94 72 296 265 180 139 146 191 220 212 203 201
335 334 334 333 338 336 328 308 275 277 272 237 198 197 148 144 165 49 234 195 179 177 176 192 146 131 124 134 128 116 120 113 136 254 259 241 138 174 211 198 189 186 120
344 345 347 345 343 347 342 342 330 322 337 98 97 86 139 8 321 213 234 193 177 174 176 172 152 140 140 165 151 149 158 262 341 268 234 143 157 176 193 149 140 115 119
354 356 356 355 352 348 355 1 350 357 4 60 76 81 69 50 356 181 210 202 149 159 153 120 144 154 168 185 163 150 157 229 218 197 201 161 140 156 160 151 147 147 153
1 3 2 0 360 359 1 3 359 1 358 14 37 58 355 347 19 28 30 40 124 181 177 167 175 170 167 179 173 152 192 273 99 325 161 157 144 146 149 152 167 159 150
5 6 7 5 3 2 357 2 7 4 359 1 347 335 318 314 341 7 9 3 12 22 68 156 158 171 172 171 172 167 202 266 9 315 248 179 179 164 177 174 155 146 141
9 8 6 5 7 4 3 360 1 1 2 355 348 343 310 309 309 309 316 296 317 321 322 253 232 206 188 192 197 180 169 281 270 236 250 202 178 185 176 159 145 142 150